User: anonymous   Login
Location: PFO Observatory
(45.2937°N, 66.0991°W)
Time: 20:11:26
(UTC-04:00)
Language:

Cosmos 1151 Rocket - Orbit

View from above orbital plane
View from above orbital plane
View from above satellite
View from above satellite

Ground track
Ground track

The orbit data is extracted from the following two-line orbital elements,

1 11672U 80005B   15063.23557174  .00000725  00000-0  77131-4 0  9996
2 11672 082.5178 148.2279 0016247 207.1015 152.9356 14.87493221899108
Epoch (UTC): 04 March 2015 05:39:13
Eccentricity: 0.0016247
inclination: 82.5178°
perigee height: 594 km
apogee height: 617 km
right ascension of ascending node: 148.2279°
argument of perigee: 207.1015°
revolutions per day: 14.87493221
mean anomaly at epoch: 152.9356°
orbit number at epoch: 89910

The dashed part of the orbit path shows where the satellite is in the earth's shadow,  

DLR